EUTELSAT 117 WEST B (W*)

Last updated on Thu Jul 03 2025 00:03:25 GMT+0000 (Coordinated Universal Time)

1 41589U 16038B 25183.54342446 -.00000004 00000+0 00000+0 0 9999 2 41589 0.0087 204.5566 0000040 332.2700 182.6281 1.00270275 33157
UTC large
Height (km)
Speed (km/s)
/
Latitude / Longitude
Inclination (degrees)
Orbital Period (minutes)
Azimuth
Elevation
Range (km)
Doppler Factor

Next 0 passes for location: London (51.5072 / 0.1276)

Sorry there are no passes over London.